This is the latest recevied weather packets stored in our database for station/object MB7UUE. If no packets are shown the sender has not sent any weather packets the latest 10 day(s).
| Time | Temp. | Humidity | Pressure | Rain* | Wind** | Luminosity | Snow |
|---|---|---|---|---|---|---|---|
| 1788703536 | 26.67° C | 30% | 1019.1 hPa | 0 mm | - | - | - |
| 1788702523 | 26.67° C | 33% | 1019.4 hPa | 0 mm | - | - | - |
| 1788702397 | 26.67° C | 33% | 1019.5 hPa | 0 mm | - | - | - |
| 1788701382 | 26.11° C | 34% | 1019.6 hPa | 0 mm | - | - | - |
| 1788701256 | 26.11° C | 34% | 1019.6 hPa | 0 mm | - | - | - |
| 1788700242 | 26.11° C | 33% | 1019.9 hPa | 0 mm | - | - | - |
| 1788700116 | 26.11° C | 32% | 1019.9 hPa | 0 mm | - | - | - |
| 1788699103 | 26.11° C | 34% | 1020 hPa | 0 mm | - | - | - |
| 1788698977 | 26.11° C | 35% | 1020 hPa | 0 mm | - | - | - |
| 1788697963 | 26.11° C | 36% | 1020.1 hPa | 0 mm | - | - | - |
| 1788697837 | 26.11° C | 36% | 1020.1 hPa | 0 mm | - | - | - |
| 1788696823 | 25.56° C | 40% | 1020.4 hPa | 0 mm | - | - | - |
| 1788696697 | 25.56° C | 40% | 1020.4 hPa | 0 mm | - | - | - |
| 1788695682 | 25° C | 41% | 1020.6 hPa | 0 mm | - | - | - |
| 1788695556 | 25° C | 43% | 1020.6 hPa | 0 mm | - | - | - |
| 1788694543 | 24.44° C | 45% | 1020.7 hPa | 0 mm | - | - | - |
| 1788694417 | 24.44° C | 45% | 1020.7 hPa | 0 mm | - | - | - |
| 1788693402 | 23.89° C | 45% | 1021.1 hPa | 0 mm | - | - | - |
| 1788693276 | 23.89° C | 46% | 1021.1 hPa | 0 mm | - | - | - |
| 1788692263 | 23.33° C | 48% | 1021.2 hPa | 0 mm | - | - | - |
| 1788692137 | 23.33° C | 49% | 1021.2 hPa | 0 mm | - | - | - |
| 1788691122 | 22.78° C | 53% | 1021.3 hPa | 0 mm | - | - | - |
| 1788690996 | 22.78° C | 53% | 1021.3 hPa | 0 mm | - | - | - |
| 1788689983 | 22.22° C | 56% | 1021.5 hPa | 0 mm | - | - | - |
| 1788689857 | 22.22° C | 56% | 1021.6 hPa | 0 mm | - | - | - |
* Rain latest hour (hover to see other rain measurements)
** Current wind speed in m/s (hover to see current wind gust speed)